User: anonymous   Login
Location: Haliburton Scout Reserve
(45.0900°N, 78.3200°W)
Time: 04:04:00
(UTC-04:00)
Language:

TIGRISAT - Orbit

View from above orbital plane
View from above orbital plane
View from above satellite
View from above satellite

Ground track
Ground track

The orbit data is extracted from the following two-line orbital elements,

1 40043U 14033AK  23265.75804084  .00003302  00000-0  46271-3 0  9997
2 40043  97.6733  75.9228 0058562  96.7059 264.0821 14.76969012497810
Epoch (UTC): 22 September 2023 18:11:34
Eccentricity: 0.0058562
inclination: 97.6733°
perigee height: 598 km
apogee height: 680 km
right ascension of ascending node: 75.9228°
argument of perigee: 96.7059°
revolutions per day: 14.76969012
mean anomaly at epoch: 264.0821°
orbit number at epoch: 49781

The dashed part of the orbit path shows where the satellite is in the earth's shadow,  

DLR